Time,TemperatureF,DewpointF,PressureIn,WindDirection,WindDirectionDegrees,WindSpeedMPH,WindSpeedGustMPH,Humidity,HourlyPrecipIn,Conditions,Clouds,dailyrainin,SoftwareType,DateUTC
2013-07-04 00:00:00,62.1,52.6,29.99,ESE,113,0.0,0.0,71,0.00,,---,0.00,VWS V14.01,2013-07-04 04:00:00,
2013-07-04 00:01:00,62.1,52.6,29.99,ESE,113,0.0,0.0,71,0.00,,---,0.00,VWS V14.01,2013-07-04 04:01:00,
2013-07-04 00:06:00,62.2,51.9,29.99,ESE,113,0.0,0.0,69,0.00,,---,0.00,VWS V14.01,2013-07-04 04:06:00,
2013-07-04 00:11:00,62.4,52.1,29.99,ESE,113,0.0,2.0,69,0.00,,---,0.00,VWS V14.01,2013-07-04 04:11:00,
2013-07-04 00:16:00,62.6,52.3,29.98,ESE,113,0.0,2.0,69,0.00,,---,0.00,VWS V14.01,2013-07-04 04:16:00,
2013-07-04 00:21:00,62.7,52.0,29.99,ESE,113,0.0,2.0,68,0.00,,---,0.00,VWS V14.01,2013-07-04 04:21:00,
2013-07-04 00:26:00,63.0,51.9,29.99,ESE,113,0.0,2.0,67,0.00,,---,0.00,VWS V14.01,2013-07-04 04:26:00,
2013-07-04 00:31:00,63.2,51.7,29.98,ESE,113,0.0,3.0,66,0.00,,---,0.00,VWS V14.01,2013-07-04 04:31:00,
2013-07-04 00:36:00,63.4,51.4,29.98,ESE,113,0.0,3.0,65,0.00,,---,0.00,VWS V14.01,2013-07-04 04:36:00,
2013-07-04 00:41:00,63.5,51.5,29.98,ESE,113,0.0,3.0,65,0.00,,---,0.00,VWS V14.01,2013-07-04 04:41:00,
2013-07-04 00:46:00,63.6,51.6,29.98,ESE,113,0.0,3.0,65,0.00,,---,0.00,VWS V14.01,2013-07-04 04:46:00,
2013-07-04 00:51:00,63.7,51.7,29.98,ESE,113,0.0,3.0,65,0.00,,---,0.00,VWS V14.01,2013-07-04 04:51:00,
2013-07-04 00:56:00,63.7,51.3,29.98,ESE,113,0.0,3.0,64,0.00,,---,0.00,VWS V14.01,2013-07-04 04:56:00,
2013-07-04 01:01:00,63.8,51.8,29.98,ESE,113,0.0,3.0,65,0.00,,---,0.00,VWS V14.01,2013-07-04 05:01:00,
2013-07-04 01:06:00,63.8,51.4,29.98,ESE,113,0.0,3.0,64,0.00,,---,0.00,VWS V14.01,2013-07-04 05:06:00,
2013-07-04 01:11:00,63.9,51.1,29.99,ESE,113,2.0,3.0,63,0.00,,---,0.00,VWS V14.01,2013-07-04 05:11:00,
2013-07-04 01:16:00,64.2,51.4,29.99,ESE,113,1.0,3.0,63,0.00,,---,0.00,VWS V14.01,2013-07-04 05:16:00,
2013-07-04 01:21:00,64.5,52.1,29.99,ESE,113,1.0,3.0,64,0.00,,---,0.00,VWS V14.01,2013-07-04 05:21:00,
2013-07-04 01:26:00,64.7,51.8,29.98,ESE,113,0.0,3.0,63,0.00,,---,0.00,VWS V14.01,2013-07-04 05:26:00,
2013-07-04 01:31:00,64.8,51.9,29.98,ESE,113,0.0,3.0,63,0.00,,---,0.00,VWS V14.01,2013-07-04 05:31:00,
2013-07-04 01:36:00,64.8,51.9,29.98,ESE,113,0.0,3.0,63,0.00,,---,0.00,VWS V14.01,2013-07-04 05:36:00,
2013-07-04 01:41:00,64.7,52.3,29.98,ESE,113,0.0,3.0,64,0.00,,---,0.00,VWS V14.01,2013-07-04 05:41:00,
2013-07-04 01:46:00,64.7,52.3,29.98,ESE,113,0.0,3.0,64,0.00,,---,0.00,VWS V14.01,2013-07-04 05:46:00,
2013-07-04 01:51:00,64.6,52.6,29.98,ESE,113,0.0,3.0,65,0.00,,---,0.00,VWS V14.01,2013-07-04 05:51:00,
2013-07-04 01:56:00,64.5,52.5,29.98,ESE,113,0.0,3.0,65,0.00,,---,0.00,VWS V14.01,2013-07-04 05:56:00,
2013-07-04 02:01:00,64.4,52.8,29.98,ESE,113,0.0,0.0,66,0.00,,---,0.00,VWS V14.01,2013-07-04 06:01:00,
2013-07-04 02:06:00,64.2,52.6,29.98,ESE,113,0.0,2.0,66,0.00,,---,0.00,VWS V14.01,2013-07-04 06:06:00,
2013-07-04 02:11:00,64.1,52.9,29.98,ESE,113,0.0,2.0,67,0.00,,---,0.00,VWS V14.01,2013-07-04 06:11:00,
2013-07-04 02:16:00,64.0,52.8,29.98,ESE,113,0.0,2.0,67,0.00,,---,0.00,VWS V14.01,2013-07-04 06:16:00,
2013-07-04 02:21:00,63.8,53.0,29.98,ESE,113,0.0,2.0,68,0.00,,---,0.00,VWS V14.01,2013-07-04 06:21:00,
2013-07-04 02:26:00,63.6,53.3,29.98,ESE,113,0.0,2.0,69,0.00,,---,0.00,VWS V14.01,2013-07-04 06:26:00,
2013-07-04 02:31:00,63.5,53.5,29.98,ESE,113,0.0,2.0,70,0.00,,---,0.00,VWS V14.01,2013-07-04 06:31:00,
2013-07-04 02:36:00,63.3,53.4,29.98,ESE,113,0.0,2.0,70,0.00,,---,0.00,VWS V14.01,2013-07-04 06:36:00,
2013-07-04 02:41:00,63.0,53.1,29.98,ESE,113,0.0,2.0,70,0.00,,---,0.00,VWS V14.01,2013-07-04 06:41:00,
2013-07-04 02:46:00,62.8,53.7,29.97,ESE,113,0.0,2.0,72,0.00,,---,0.00,VWS V14.01,2013-07-04 06:46:00,
2013-07-04 02:51:00,62.6,53.8,29.98,ESE,113,0.0,2.0,73,0.00,,---,0.00,VWS V14.01,2013-07-04 06:51:00,
2013-07-04 02:56:00,62.4,54.8,29.97,ESE,113,0.0,2.0,76,0.00,,---,0.00,VWS V14.01,2013-07-04 06:56:00,
2013-07-04 03:01:00,62.3,54.7,29.97,ESE,113,0.0,2.0,76,0.00,,---,0.00,VWS V14.01,2013-07-04 07:01:00,
2013-07-04 03:06:00,62.2,55.3,29.97,ESE,113,0.0,2.0,78,0.00,,---,0.00,VWS V14.01,2013-07-04 07:06:00,
2013-07-04 03:11:00,62.1,55.5,29.97,ESE,113,0.0,2.0,79,0.00,,---,0.00,VWS V14.01,2013-07-04 07:11:00,
2013-07-04 03:16:00,62.0,55.4,29.97,ESE,113,0.0,2.0,79,0.00,,---,0.00,VWS V14.01,2013-07-04 07:16:00,
2013-07-04 03:21:00,61.8,55.2,29.97,ESE,113,0.0,2.0,79,0.00,,---,0.00,VWS V14.01,2013-07-04 07:21:00,
2013-07-04 03:26:00,61.6,55.4,29.97,ESE,113,0.0,2.0,80,0.00,,---,0.00,VWS V14.01,2013-07-04 07:26:00,
2013-07-04 03:31:00,61.3,55.1,29.97,ESE,113,0.0,2.0,80,0.00,,---,0.00,VWS V14.01,2013-07-04 07:31:00,
2013-07-04 03:36:00,61.0,55.1,29.97,ESE,113,0.0,2.0,81,0.00,,---,0.00,VWS V14.01,2013-07-04 07:36:00,
2013-07-04 03:41:00,60.7,54.8,29.97,ESE,113,0.0,2.0,81,0.00,,---,0.00,VWS V14.01,2013-07-04 07:41:00,
2013-07-04 03:46:00,60.5,54.7,29.97,ESE,113,0.0,2.0,81,0.00,,---,0.00,VWS V14.01,2013-07-04 07:46:00,
2013-07-04 03:51:00,60.2,54.4,29.97,ESE,113,0.0,2.0,81,0.00,,---,0.00,VWS V14.01,2013-07-04 07:51:00,
2013-07-04 03:56:00,59.9,54.4,29.97,ESE,113,0.0,2.0,82,0.00,,---,0.00,VWS V14.01,2013-07-04 07:56:00,
2013-07-04 04:01:00,59.7,54.2,29.97,ESE,113,0.0,0.0,82,0.00,,---,0.00,VWS V14.01,2013-07-04 08:01:00,
2013-07-04 04:06:00,59.5,54.0,29.97,ESE,113,0.0,0.0,82,0.00,,---,0.00,VWS V14.01,2013-07-04 08:06:00,
2013-07-04 04:11:00,59.2,54.0,29.97,ESE,113,0.0,0.0,83,0.00,,---,0.00,VWS V14.01,2013-07-04 08:11:00,
2013-07-04 04:16:00,59.0,53.8,29.97,ESE,113,0.0,0.0,83,0.00,,---,0.00,VWS V14.01,2013-07-04 08:16:00,
2013-07-04 04:21:00,59.0,53.8,29.96,ESE,113,0.0,0.0,83,0.00,,---,0.00,VWS V14.01,2013-07-04 08:21:00,
2013-07-04 04:26:00,58.9,53.8,29.97,ESE,113,0.0,0.0,83,0.00,,---,0.00,VWS V14.01,2013-07-04 08:26:00,
2013-07-04 04:31:00,58.7,53.6,29.96,ESE,113,0.0,0.0,83,0.00,,---,0.00,VWS V14.01,2013-07-04 08:31:00,
2013-07-04 04:36:00,58.6,53.5,29.96,ESE,113,0.0,0.0,83,0.00,,---,0.00,VWS V14.01,2013-07-04 08:36:00,
2013-07-04 04:41:00,58.5,53.7,29.96,ESE,113,0.0,0.0,84,0.00,,---,0.00,VWS V14.01,2013-07-04 08:41:00,
2013-07-04 04:46:00,58.4,53.6,29.96,ESE,113,0.0,0.0,84,0.00,,---,0.00,VWS V14.01,2013-07-04 08:46:00,
2013-07-04 04:51:00,58.4,53.6,29.96,ESE,113,0.0,1.0,84,0.00,,---,0.00,VWS V14.01,2013-07-04 08:51:00,
2013-07-04 04:56:00,58.5,53.7,29.95,ESE,113,0.0,1.0,84,0.00,,---,0.00,VWS V14.01,2013-07-04 08:56:00,
2013-07-04 05:01:00,58.7,53.6,29.96,ESE,113,0.0,1.0,83,0.00,,---,0.00,VWS V14.01,2013-07-04 09:01:00,
2013-07-04 05:06:00,59.0,53.5,29.95,ESE,113,0.0,1.0,82,0.00,,---,0.00,VWS V14.01,2013-07-04 09:06:00,
2013-07-04 05:11:00,59.2,53.4,29.95,ESE,113,0.0,1.0,81,0.00,,---,0.00,VWS V14.01,2013-07-04 09:11:00,
2013-07-04 05:16:00,59.6,53.4,29.95,ESE,113,0.0,3.0,80,0.00,,---,0.00,VWS V14.01,2013-07-04 09:16:00,
2013-07-04 05:21:00,60.0,53.5,29.95,ESE,113,0.0,3.0,79,0.00,,---,0.00,VWS V14.01,2013-07-04 09:21:00,
2013-07-04 05:26:00,60.2,53.3,29.95,ESE,113,0.0,3.0,78,0.00,,---,0.00,VWS V14.01,2013-07-04 09:26:00,
2013-07-04 05:31:00,60.4,53.5,29.95,ESE,113,0.0,3.0,78,0.00,,---,0.00,VWS V14.01,2013-07-04 09:31:00,
2013-07-04 05:36:00,60.5,53.6,29.95,ESE,113,0.0,3.0,78,0.00,,---,0.00,VWS V14.01,2013-07-04 09:36:00,
2013-07-04 05:41:00,60.5,53.6,29.95,ESE,113,0.0,3.0,78,0.00,,---,0.00,VWS V14.01,2013-07-04 09:41:00,
2013-07-04 05:46:00,60.5,53.3,29.95,ESE,113,0.0,3.0,77,0.00,,---,0.00,VWS V14.01,2013-07-04 09:46:00,
2013-07-04 05:51:00,60.5,53.6,29.95,ESE,113,0.0,3.0,78,0.00,,---,0.00,VWS V14.01,2013-07-04 09:51:00,
2013-07-04 05:56:00,60.5,53.6,29.95,ESE,113,0.0,3.0,78,0.00,,---,0.00,VWS V14.01,2013-07-04 09:56:00,
2013-07-04 06:01:00,60.5,53.6,29.95,ESE,113,0.0,1.0,78,0.00,,---,0.00,VWS V14.01,2013-07-04 10:01:00,
2013-07-04 06:06:00,60.5,54.0,29.95,ESE,113,0.0,1.0,79,0.00,,---,0.00,VWS V14.01,2013-07-04 10:06:00,
2013-07-04 06:11:00,60.6,54.1,29.95,ESE,113,0.0,1.0,79,0.00,,---,0.00,VWS V14.01,2013-07-04 10:11:00,
2013-07-04 06:16:00,60.7,54.5,29.95,ESE,113,0.0,1.0,80,0.00,,---,0.00,VWS V14.01,2013-07-04 10:16:00,
2013-07-04 06:21:00,60.7,54.5,29.95,ESE,113,1.0,1.0,80,0.00,,---,0.00,VWS V14.01,2013-07-04 10:21:00,
2013-07-04 06:26:00,60.9,54.7,29.95,ESE,113,0.0,1.0,80,0.00,,---,0.00,VWS V14.01,2013-07-04 10:26:00,
2013-07-04 06:31:00,61.0,55.1,29.95,ESE,113,0.0,2.0,81,0.00,,---,0.00,VWS V14.01,2013-07-04 10:31:00,
2013-07-04 06:36:00,61.1,55.2,29.95,ESE,113,0.0,2.0,81,0.00,,---,0.00,VWS V14.01,2013-07-04 10:36:00,
2013-07-04 06:41:00,61.3,55.4,29.95,ESE,113,0.0,2.0,81,0.00,,---,0.00,VWS V14.01,2013-07-04 10:41:00,
2013-07-04 06:46:00,61.4,55.5,29.96,ESE,113,0.0,2.0,81,0.00,,---,0.00,VWS V14.01,2013-07-04 10:46:00,
2013-07-04 06:51:00,61.4,55.5,29.96,ESE,113,0.0,3.0,81,0.00,,---,0.00,VWS V14.01,2013-07-04 10:51:00,
2013-07-04 06:56:00,61.4,55.5,29.97,ESE,113,0.0,3.0,81,0.00,,---,0.00,VWS V14.01,2013-07-04 10:56:00,
2013-07-04 07:01:00,61.3,55.4,29.96,ESE,113,0.0,3.0,81,0.00,,---,0.00,VWS V14.01,2013-07-04 11:01:00,
2013-07-04 07:06:00,61.1,55.6,29.96,ESE,113,0.0,3.0,82,0.00,,---,0.00,VWS V14.01,2013-07-04 11:06:00,
2013-07-04 07:11:00,61.0,55.8,29.96,ESE,113,0.0,3.0,83,0.00,,---,0.00,VWS V14.01,2013-07-04 11:11:00,
2013-07-04 07:16:00,61.0,55.8,29.97,ESE,113,0.0,3.0,83,0.00,,---,0.00,VWS V14.01,2013-07-04 11:16:00,
2013-07-04 07:21:00,61.1,55.9,29.97,ESE,113,1.0,3.0,83,0.00,,---,0.00,VWS V14.01,2013-07-04 11:21:00,
2013-07-04 07:26:00,61.3,56.1,29.97,ESE,113,0.0,3.0,83,0.00,,---,0.00,VWS V14.01,2013-07-04 11:26:00,
2013-07-04 07:31:00,61.4,56.2,29.97,ESE,113,0.0,3.0,83,0.00,,---,0.00,VWS V14.01,2013-07-04 11:31:00,
2013-07-04 07:36:00,61.4,55.9,29.97,ESE,113,0.0,4.0,82,0.00,,---,0.00,VWS V14.01,2013-07-04 11:36:00,
2013-07-04 07:41:00,61.5,56.0,29.97,ESE,113,0.0,4.0,82,0.00,,---,0.00,VWS V14.01,2013-07-04 11:41:00,
2013-07-04 07:46:00,61.6,56.1,29.97,ESE,113,0.0,4.0,82,0.00,,---,0.00,VWS V14.01,2013-07-04 11:46:00,
2013-07-04 07:51:00,61.9,56.7,29.97,ESE,113,0.0,4.0,83,0.00,,---,0.00,VWS V14.01,2013-07-04 11:51:00,
2013-07-04 07:56:00,62.3,56.7,29.97,ESE,113,0.0,4.0,82,0.00,,---,0.00,VWS V14.01,2013-07-04 11:56:00,
2013-07-04 08:01:00,62.7,57.5,29.97,ESE,113,0.0,1.0,83,0.00,,---,0.00,VWS V14.01,2013-07-04 12:01:00,
2013-07-04 08:06:00,63.2,57.6,29.98,ESE,113,0.0,3.0,82,0.00,,---,0.00,VWS V14.01,2013-07-04 12:06:00,
2013-07-04 08:11:00,63.6,58.0,29.98,ESE,113,0.0,3.0,82,0.00,,---,0.00,VWS V14.01,2013-07-04 12:11:00,
2013-07-04 08:16:00,64.0,58.1,29.98,ESE,113,1.0,3.0,81,0.00,,---,0.00,VWS V14.01,2013-07-04 12:16:00,
2013-07-04 08:21:00,64.1,58.2,29.98,ESE,113,0.0,3.0,81,0.00,,---,0.00,VWS V14.01,2013-07-04 12:21:00,
2013-07-04 08:26:00,64.2,58.3,29.98,ESE,113,0.0,3.0,81,0.00,,---,0.00,VWS V14.01,2013-07-04 12:26:00,
2013-07-04 08:31:00,64.4,58.5,29.98,ESE,113,0.0,3.0,81,0.00,,---,0.00,VWS V14.01,2013-07-04 12:31:00,
2013-07-04 08:36:00,64.6,58.7,29.98,ESE,113,0.0,3.0,81,0.00,,---,0.00,VWS V14.01,2013-07-04 12:36:00,
2013-07-04 08:41:00,64.9,59.3,29.98,ESE,113,0.0,3.0,82,0.00,,---,0.00,VWS V14.01,2013-07-04 12:41:00,
2013-07-04 08:46:00,65.5,59.9,29.98,ESE,113,0.0,3.0,82,0.00,,---,0.00,VWS V14.01,2013-07-04 12:46:00,
2013-07-04 08:51:00,66.2,59.9,29.98,ESE,113,0.0,4.0,80,0.00,,---,0.00,VWS V14.01,2013-07-04 12:51:00,
2013-07-04 08:56:00,66.8,60.1,29.98,ESE,113,0.0,4.0,79,0.00,,---,0.00,VWS V14.01,2013-07-04 12:56:00,
2013-07-04 09:01:00,67.2,59.8,29.98,ESE,113,0.0,4.0,77,0.00,,---,0.00,VWS V14.01,2013-07-04 13:01:00,
2013-07-04 09:06:00,67.5,60.0,29.98,ESE,113,0.0,4.0,77,0.00,,---,0.00,VWS V14.01,2013-07-04 13:06:00,
2013-07-04 09:11:00,67.9,60.4,29.98,ESE,113,1.0,4.0,77,0.00,,---,0.00,VWS V14.01,2013-07-04 13:11:00,
2013-07-04 09:16:00,68.5,60.6,29.98,ESE,113,0.0,4.0,76,0.00,,---,0.00,VWS V14.01,2013-07-04 13:16:00,
2013-07-04 09:21:00,69.0,60.4,29.98,ESE,113,1.0,4.0,74,0.00,,---,0.00,VWS V14.01,2013-07-04 13:21:00,
2013-07-04 09:26:00,69.6,61.0,29.98,ESE,113,0.0,4.0,74,0.00,,---,0.00,VWS V14.01,2013-07-04 13:26:00,
2013-07-04 09:31:00,70.1,60.7,29.98,ESE,113,0.0,4.0,72,0.00,,---,0.00,VWS V14.01,2013-07-04 13:31:00,
2013-07-04 09:36:00,70.6,61.5,29.98,ESE,113,0.0,4.0,73,0.00,,---,0.00,VWS V14.01,2013-07-04 13:36:00,
2013-07-04 09:41:00,71.1,61.2,29.98,ESE,113,0.0,4.0,71,0.00,,---,0.00,VWS V14.01,2013-07-04 13:41:00,
2013-07-04 09:46:00,71.3,61.8,29.98,ESE,113,0.0,4.0,72,0.00,,---,0.00,VWS V14.01,2013-07-04 13:46:00,
2013-07-04 09:51:00,71.7,62.2,29.98,ESE,113,0.0,4.0,72,0.00,,---,0.00,VWS V14.01,2013-07-04 13:51:00,
2013-07-04 09:56:00,72.0,62.5,29.98,ESE,113,0.0,4.0,72,0.00,,---,0.00,VWS V14.01,2013-07-04 13:56:00,
2013-07-04 10:01:00,72.5,61.8,29.97,ESE,113,1.0,1.0,69,0.00,,---,0.00,VWS V14.01,2013-07-04 14:01:00,
2013-07-04 10:06:00,72.8,61.6,29.97,ESE,113,0.0,3.0,68,0.00,,---,0.00,VWS V14.01,2013-07-04 14:06:00,
2013-07-04 10:11:00,73.1,63.2,29.97,ESE,113,0.0,3.0,71,0.00,,---,0.00,VWS V14.01,2013-07-04 14:11:00,
2013-07-04 10:15:00,73.3,62.1,29.97,ESE,113,0.0,3.0,68,0.00,,---,0.00,VWS V14.01,2013-07-04 14:15:00,
2013-07-04 10:20:00,73.6,62.4,29.97,ESE,113,1.0,3.0,68,0.00,,---,0.00,VWS V14.01,2013-07-04 14:20:00,
2013-07-04 10:25:00,74.0,62.4,29.97,ESE,113,0.0,3.0,67,0.00,,---,0.00,VWS V14.01,2013-07-04 14:25:00,
2013-07-04 10:30:00,74.3,62.2,29.97,ESE,113,0.0,3.0,66,0.00,,---,0.00,VWS V14.01,2013-07-04 14:30:00,
2013-07-04 10:36:00,74.6,62.1,29.97,ESE,113,0.0,3.0,65,0.00,,---,0.00,VWS V14.01,2013-07-04 14:36:00,
2013-07-04 10:41:00,74.6,62.5,29.97,ESE,113,0.0,3.0,66,0.00,,---,0.00,VWS V14.01,2013-07-04 14:41:00,
2013-07-04 10:46:00,74.4,62.3,29.97,ESE,113,0.0,3.0,66,0.00,,---,0.00,VWS V14.01,2013-07-04 14:46:00,
2013-07-04 10:51:00,74.3,62.6,29.97,ESE,113,0.0,3.0,67,0.00,,---,0.00,VWS V14.01,2013-07-04 14:51:00,
2013-07-04 10:56:00,74.4,61.4,29.97,ESE,113,0.0,3.0,64,0.00,,---,0.00,VWS V14.01,2013-07-04 14:56:00,
2013-07-04 11:00:00,75.0,62.9,29.96,ESE,113,0.0,4.0,66,0.00,,---,0.00,VWS V14.01,2013-07-04 15:00:00,
2013-07-04 11:05:00,75.3,62.3,29.96,ESE,113,0.0,4.0,64,0.00,,---,0.00,VWS V14.01,2013-07-04 15:05:00,
2013-07-04 11:10:00,75.1,61.7,29.96,ESE,110,4.0,4.0,63,0.00,,---,0.00,VWS V14.01,2013-07-04 15:10:00,
2013-07-04 11:15:00,74.6,61.6,29.96,ESE,110,0.0,4.0,64,0.00,,---,0.00,VWS V14.01,2013-07-04 15:15:00,
2013-07-04 11:20:00,73.4,61.4,29.96,ESE,110,1.0,5.0,66,0.00,,---,0.00,VWS V14.01,2013-07-04 15:20:00,
2013-07-04 11:26:00,72.8,60.8,29.96,ESE,110,0.0,5.0,66,0.00,,---,0.00,VWS V14.01,2013-07-04 15:26:00,
2013-07-04 11:31:00,72.0,60.9,29.96,ESE,110,0.0,5.0,68,0.00,,---,0.00,VWS V14.01,2013-07-04 15:31:00,
2013-07-04 11:36:00,71.0,60.7,29.96,ESE,110,0.0,5.0,70,0.00,,---,0.00,VWS V14.01,2013-07-04 15:36:00,
2013-07-04 11:41:00,70.6,60.3,29.96,ESE,110,0.0,5.0,70,0.00,,---,0.00,VWS V14.01,2013-07-04 15:41:00,
2013-07-04 11:45:00,70.3,60.5,29.96,ESE,110,0.0,5.0,71,0.00,,---,0.00,VWS V14.01,2013-07-04 15:45:00,
2013-07-04 11:50:00,70.5,61.8,29.96,ESE,110,0.0,5.0,74,0.00,,---,0.00,VWS V14.01,2013-07-04 15:50:00,
2013-07-04 11:55:00,71.1,61.2,29.96,ESE,110,0.0,5.0,71,0.00,,---,0.00,VWS V14.01,2013-07-04 15:55:00,
2013-07-04 12:01:00,71.8,61.5,29.96,ESE,110,0.0,0.0,70,0.00,,---,0.00,VWS V14.01,2013-07-04 16:01:00,
2013-07-04 12:05:00,72.3,61.6,29.96,ESE,110,0.0,1.0,69,0.00,,---,0.00,VWS V14.01,2013-07-04 16:05:00,
2013-07-04 12:10:00,72.5,61.3,29.96,ESE,110,0.0,2.0,68,0.00,,---,0.00,VWS V14.01,2013-07-04 16:10:00,
2013-07-04 12:15:00,72.5,61.3,29.95,ESE,110,0.0,2.0,68,0.00,,---,0.00,VWS V14.01,2013-07-04 16:15:00,
2013-07-04 12:20:00,72.6,61.9,29.95,ESE,110,0.0,2.0,69,0.00,,---,0.00,VWS V14.01,2013-07-04 16:20:00,
2013-07-04 12:25:00,72.8,61.6,29.95,ESE,110,0.0,2.0,68,0.00,,---,0.00,VWS V14.01,2013-07-04 16:25:00,
2013-07-04 12:30:00,73.0,61.8,29.95,ESE,110,1.0,2.0,68,0.00,,---,0.00,VWS V14.01,2013-07-04 16:30:00,
2013-07-04 12:35:00,73.3,62.1,29.95,ESE,110,0.0,2.0,68,0.00,,---,0.00,VWS V14.01,2013-07-04 16:35:00,
2013-07-04 12:40:00,73.5,61.9,29.95,ESE,110,1.0,2.0,67,0.00,,---,0.00,VWS V14.01,2013-07-04 16:40:00,
2013-07-04 12:45:00,73.5,61.9,29.95,ESE,110,0.0,2.0,67,0.00,,---,0.00,VWS V14.01,2013-07-04 16:45:00,
2013-07-04 12:50:00,73.5,61.9,29.95,ESE,110,0.0,2.0,67,0.00,,---,0.00,VWS V14.01,2013-07-04 16:50:00,
2013-07-04 12:55:00,73.8,62.2,29.95,ESE,110,0.0,2.0,67,0.00,,---,0.00,VWS V14.01,2013-07-04 16:55:00,
2013-07-04 13:00:00,74.1,61.2,29.95,ESE,110,0.0,2.0,64,0.00,,---,0.00,VWS V14.01,2013-07-04 17:00:00,
2013-07-04 13:05:00,74.1,61.6,29.95,ESE,110,0.0,2.0,65,0.00,,---,0.00,VWS V14.01,2013-07-04 17:05:00,
2013-07-04 13:10:00,74.2,62.1,29.95,ESE,110,0.0,2.0,66,0.00,,---,0.00,VWS V14.01,2013-07-04 17:10:00,
2013-07-04 13:15:00,74.4,62.7,29.95,ESE,110,0.0,2.0,67,0.00,,---,0.00,VWS V14.01,2013-07-04 17:15:00,
2013-07-04 13:20:00,74.4,62.3,29.95,ESE,110,0.0,2.0,66,0.00,,---,0.00,VWS V14.01,2013-07-04 17:20:00,
2013-07-04 13:25:00,74.4,62.7,29.95,ESE,110,0.0,2.0,67,0.00,,---,0.00,VWS V14.01,2013-07-04 17:25:00,
2013-07-04 13:30:00,74.5,62.8,29.95,ESE,110,0.0,2.0,67,0.00,,---,0.00,VWS V14.01,2013-07-04 17:30:00,
2013-07-04 13:35:00,74.7,63.0,29.95,ESE,110,0.0,2.0,67,0.00,,---,0.00,VWS V14.01,2013-07-04 17:35:00,
2013-07-04 13:40:00,74.9,62.8,29.94,ESE,110,0.0,2.0,66,0.00,,---,0.00,VWS V14.01,2013-07-04 17:40:00,
2013-07-04 13:45:00,75.1,62.5,29.94,ESE,110,0.0,2.0,65,0.00,,---,0.00,VWS V14.01,2013-07-04 17:45:00,
2013-07-04 13:50:00,75.5,62.5,29.94,ESE,110,0.0,2.0,64,0.00,,---,0.00,VWS V14.01,2013-07-04 17:50:00,
2013-07-04 13:55:00,75.9,61.5,29.94,ESE,110,0.0,3.0,61,0.00,,---,0.00,VWS V14.01,2013-07-04 17:55:00,
2013-07-04 14:00:00,76.2,62.2,29.94,ESE,110,0.0,1.0,62,0.00,,---,0.00,VWS V14.01,2013-07-04 18:00:00,
2013-07-04 14:05:00,76.3,61.9,29.94,ESE,110,0.0,2.0,61,0.00,,---,0.00,VWS V14.01,2013-07-04 18:05:00,
2013-07-04 14:10:00,76.4,62.4,29.94,ESE,110,2.0,2.0,62,0.00,,---,0.00,VWS V14.01,2013-07-04 18:10:00,
2013-07-04 14:15:00,76.4,62.9,29.94,ESE,110,1.0,2.0,63,0.00,,---,0.00,VWS V14.01,2013-07-04 18:15:00,
2013-07-04 14:24:00,76.3,62.3,29.94,ESE,110,0.0,2.0,62,0.00,,---,0.00,VWS V14.01,2013-07-04 18:24:00,
2013-07-04 14:29:00,76.2,62.2,29.93,ESE,110,0.0,2.0,62,0.00,,---,0.00,VWS V14.01,2013-07-04 18:29:00,
2013-07-04 14:34:00,76.1,61.7,29.93,ESE,110,1.0,2.0,61,0.00,,---,0.00,VWS V14.01,2013-07-04 18:34:00,
2013-07-04 14:39:00,76.2,60.8,29.93,ESE,110,0.0,2.0,59,0.00,,---,0.00,VWS V14.01,2013-07-04 18:39:00,
2013-07-04 14:44:00,76.4,60.5,29.93,ESE,110,0.0,3.0,58,0.00,,---,0.00,VWS V14.01,2013-07-04 18:44:00,
2013-07-04 14:49:00,76.6,60.7,29.93,ESE,113,0.0,3.0,58,0.00,,---,0.00,VWS V14.01,2013-07-04 18:49:00,
2013-07-04 14:54:00,76.5,61.6,29.93,ESE,113,0.0,3.0,60,0.00,,---,0.00,VWS V14.01,2013-07-04 18:54:00,
2013-07-04 14:59:00,76.6,61.2,29.93,ESE,113,0.0,3.0,59,0.00,,---,0.00,VWS V14.01,2013-07-04 18:59:00,
2013-07-04 15:04:00,77.0,60.6,29.93,ESE,110,0.0,3.0,57,0.00,,---,0.00,VWS V14.01,2013-07-04 19:04:00,
2013-07-04 15:09:00,77.5,60.6,29.93,ESE,110,0.0,3.0,56,0.00,,---,0.00,VWS V14.01,2013-07-04 19:09:00,
2013-07-04 15:14:00,77.9,61.0,29.93,ESE,110,0.0,3.0,56,0.00,,---,0.00,VWS V14.01,2013-07-04 19:14:00,
2013-07-04 15:19:00,78.0,62.0,29.93,ESE,110,0.0,3.0,58,0.00,,---,0.00,VWS V14.01,2013-07-04 19:19:00,
2013-07-04 15:24:00,77.9,62.0,29.93,ESE,110,0.0,3.0,58,0.00,,---,0.00,VWS V14.01,2013-07-04 19:24:00,
2013-07-04 15:29:00,77.8,62.8,29.93,ESE,110,0.0,3.0,60,0.00,,---,0.00,VWS V14.01,2013-07-04 19:29:00,
2013-07-04 15:34:00,77.3,62.3,29.93,ESE,110,0.0,4.0,60,0.00,,---,0.00,VWS V14.01,2013-07-04 19:34:00,
2013-07-04 15:39:00,76.7,62.2,29.92,ESE,109,2.0,4.0,61,0.00,,---,0.00,VWS V14.01,2013-07-04 19:39:00,
2013-07-04 15:44:00,76.3,63.7,29.92,ESE,109,0.0,4.0,65,0.00,,---,0.00,VWS V14.01,2013-07-04 19:44:00,
2013-07-04 15:49:00,75.4,62.4,29.92,ESE,109,0.0,4.0,64,0.00,,---,0.00,VWS V14.01,2013-07-04 19:49:00,
2013-07-04 15:54:00,74.2,62.1,29.92,ESE,109,0.0,4.0,66,0.00,,---,0.00,VWS V14.01,2013-07-04 19:54:00,
2013-07-04 15:59:00,74.2,63.4,29.92,ESE,109,0.0,4.0,69,0.00,,---,0.00,VWS V14.01,2013-07-04 19:59:00,
2013-07-04 16:04:00,75.5,64.6,29.92,ESE,109,0.0,2.0,69,0.00,,---,0.00,VWS V14.01,2013-07-04 20:04:00,
2013-07-04 16:09:00,77.2,64.1,29.91,ESE,107,1.0,4.0,64,0.00,,---,0.00,VWS V14.01,2013-07-04 20:09:00,
2013-07-04 16:14:00,78.4,64.8,29.91,ESE,107,0.0,4.0,63,0.00,,---,0.00,VWS V14.01,2013-07-04 20:14:00,
2013-07-04 16:19:00,79.5,64.4,29.91,ESE,105,0.0,4.0,60,0.00,,---,0.00,VWS V14.01,2013-07-04 20:19:00,
2013-07-04 16:24:00,80.3,65.2,29.91,ESE,105,2.0,4.0,60,0.00,,---,0.00,VWS V14.01,2013-07-04 20:24:00,
2013-07-04 16:29:00,80.3,64.7,29.91,ESE,105,0.0,4.0,59,0.00,,---,0.00,VWS V14.01,2013-07-04 20:29:00,
2013-07-04 16:34:00,80.0,64.9,29.91,ESE,105,0.0,4.0,60,0.00,,---,0.00,VWS V14.01,2013-07-04 20:34:00,
2013-07-04 16:39:00,80.1,65.4,29.91,ESE,103,0.0,4.0,61,0.00,,---,0.00,VWS V14.01,2013-07-04 20:39:00,
2013-07-04 16:44:00,80.2,65.1,29.91,ESE,103,3.0,4.0,60,0.00,,---,0.00,VWS V14.01,2013-07-04 20:44:00,
2013-07-04 16:49:00,80.6,64.5,29.91,East,96,0.0,5.0,58,0.00,,---,0.00,VWS V14.01,2013-07-04 20:49:00,
2013-07-04 16:54:00,81.1,65.4,29.91,East,96,2.0,5.0,59,0.00,,---,0.00,VWS V14.01,2013-07-04 20:54:00,
2013-07-04 16:59:00,81.3,65.6,29.91,East,96,0.0,5.0,59,0.00,,---,0.00,VWS V14.01,2013-07-04 20:59:00,
2013-07-04 17:04:00,81.5,65.3,29.90,East,92,0.0,5.0,58,0.00,,---,0.00,VWS V14.01,2013-07-04 21:04:00,
2013-07-04 17:09:00,81.8,66.1,29.90,East,92,2.0,5.0,59,0.00,,---,0.00,VWS V14.01,2013-07-04 21:09:00,
2013-07-04 17:14:00,81.6,65.9,29.91,East,89,0.0,5.0,59,0.00,,---,0.00,VWS V14.01,2013-07-04 21:14:00,
2013-07-04 17:19:00,81.6,65.4,29.91,North,360,0.0,5.0,58,0.00,,---,0.00,VWS V14.01,2013-07-04 21:19:00,
2013-07-04 17:24:00,81.6,65.4,29.91,North,360,0.0,5.0,58,0.00,,---,0.00,VWS V14.01,2013-07-04 21:24:00,
2013-07-04 17:29:00,81.7,65.5,29.91,North,360,0.0,5.0,58,0.00,,---,0.00,VWS V14.01,2013-07-04 21:29:00,
2013-07-04 17:34:00,81.7,65.5,29.90,North,360,0.0,5.0,58,0.00,,---,0.00,VWS V14.01,2013-07-04 21:34:00,
2013-07-04 17:39:00,81.6,65.4,29.91,North,360,1.0,5.0,58,0.00,,---,0.00,VWS V14.01,2013-07-04 21:39:00,
2013-07-04 17:44:00,81.4,65.7,29.91,North,360,0.0,5.0,59,0.00,,---,0.00,VWS V14.01,2013-07-04 21:44:00,
2013-07-04 17:49:00,81.3,65.1,29.91,North,360,3.0,5.0,58,0.00,,---,0.00,VWS V14.01,2013-07-04 21:49:00,
2013-07-04 17:54:00,81.1,65.4,29.91,North,360,3.0,5.0,59,0.00,,---,0.00,VWS V14.01,2013-07-04 21:54:00,
2013-07-04 17:59:00,80.7,64.6,29.91,East,82,0.0,5.0,58,0.00,,---,0.00,VWS V14.01,2013-07-04 21:59:00,
2013-07-04 18:04:00,80.6,65.0,29.91,North,360,1.0,5.0,59,0.00,,---,0.00,VWS V14.01,2013-07-04 22:04:00,
2013-07-04 18:09:00,80.4,64.8,29.91,North,360,0.0,5.0,59,0.00,,---,0.00,VWS V14.01,2013-07-04 22:09:00,
2013-07-04 18:14:00,80.3,65.2,29.90,North,360,0.0,5.0,60,0.00,,---,0.00,VWS V14.01,2013-07-04 22:14:00,
2013-07-04 18:19:00,80.3,65.2,29.90,North,360,0.0,5.0,60,0.00,,---,0.00,VWS V14.01,2013-07-04 22:19:00,
2013-07-04 18:24:00,80.2,65.1,29.90,North,360,0.0,5.0,60,0.00,,---,0.00,VWS V14.01,2013-07-04 22:24:00,
2013-07-04 18:29:00,80.3,65.2,29.91,North,360,2.0,5.0,60,0.00,,---,0.00,VWS V14.01,2013-07-04 22:29:00,
2013-07-04 18:34:00,80.2,64.6,29.91,East,96,1.0,5.0,59,0.00,,---,0.00,VWS V14.01,2013-07-04 22:34:00,
2013-07-04 18:39:00,79.8,64.7,29.91,East,96,0.0,5.0,60,0.00,,---,0.00,VWS V14.01,2013-07-04 22:39:00,
2013-07-04 18:44:00,79.5,64.4,29.91,North,360,0.0,5.0,60,0.00,,---,0.00,VWS V14.01,2013-07-04 22:44:00,
2013-07-04 18:49:00,79.1,64.0,29.91,North,360,1.0,5.0,60,0.00,,---,0.00,VWS V14.01,2013-07-04 22:49:00,
2013-07-04 18:54:00,78.7,64.6,29.91,ESE,119,0.0,7.0,62,0.00,,---,0.00,VWS V14.01,2013-07-04 22:54:00,
2013-07-04 18:59:00,78.4,64.3,29.91,ESE,110,0.0,7.0,62,0.00,,---,0.00,VWS V14.01,2013-07-04 22:59:00,
2013-07-04 19:04:00,78.2,64.6,29.90,ESE,102,1.0,7.0,63,0.00,,---,0.00,VWS V14.01,2013-07-04 23:04:00,
2013-07-04 19:09:00,78.0,64.4,29.90,East,90,0.0,7.0,63,0.00,,---,0.00,VWS V14.01,2013-07-04 23:09:00,
2013-07-04 19:14:00,77.9,64.3,29.91,ENE,74,0.0,7.0,63,0.00,,---,0.00,VWS V14.01,2013-07-04 23:14:00,
2013-07-04 19:19:00,77.8,64.7,29.90,East,88,1.0,7.0,64,0.00,,---,0.00,VWS V14.01,2013-07-04 23:19:00,
2013-07-04 19:24:00,77.6,64.5,29.91,East,82,0.0,7.0,64,0.00,,---,0.00,VWS V14.01,2013-07-04 23:24:00,
2013-07-04 19:29:00,77.3,64.2,29.91,East,92,0.0,7.0,64,0.00,,---,0.00,VWS V14.01,2013-07-04 23:29:00,
2013-07-04 19:34:00,77.0,63.9,29.90,North,360,0.0,7.0,64,0.00,,---,0.00,VWS V14.01,2013-07-04 23:34:00,
2013-07-04 19:39:00,76.8,64.2,29.90,North,360,0.0,7.0,65,0.00,,---,0.00,VWS V14.01,2013-07-04 23:39:00,
2013-07-04 19:44:00,76.7,64.5,29.90,North,360,0.0,7.0,66,0.00,,---,0.00,VWS V14.01,2013-07-04 23:44:00,
2013-07-04 19:49:00,76.6,64.4,29.90,East,97,0.0,7.0,66,0.00,,---,0.00,VWS V14.01,2013-07-04 23:49:00,
2013-07-04 19:54:00,76.5,64.3,29.89,East,84,0.0,7.0,66,0.00,,---,0.00,VWS V14.01,2013-07-04 23:54:00,
2013-07-04 19:59:00,76.3,64.1,29.90,North,360,0.0,7.0,66,0.00,,---,0.00,VWS V14.01,2013-07-04 23:59:00,
2013-07-04 20:04:00,76.0,63.8,29.89,North,360,1.0,3.0,66,0.00,,---,0.00,VWS V14.01,2013-07-05 00:04:00,
2013-07-04 20:09:00,75.8,63.6,29.90,North,360,1.0,3.0,66,0.00,,---,0.00,VWS V14.01,2013-07-05 00:09:00,
2013-07-04 20:14:00,75.7,64.0,29.90,North,360,3.0,4.0,67,0.00,,---,0.00,VWS V14.01,2013-07-05 00:14:00,
2013-07-04 20:19:00,75.5,64.2,29.90,North,360,0.0,4.0,68,0.00,,---,0.00,VWS V14.01,2013-07-05 00:19:00,
2013-07-04 20:24:00,75.4,64.1,29.89,North,360,0.0,4.0,68,0.00,,---,0.00,VWS V14.01,2013-07-05 00:24:00,
2013-07-04 20:29:00,75.3,64.0,29.89,North,360,1.0,4.0,68,0.00,,---,0.00,VWS V14.01,2013-07-05 00:29:00,
2013-07-04 20:34:00,75.3,64.0,29.90,North,360,1.0,4.0,68,0.00,,---,0.00,VWS V14.01,2013-07-05 00:34:00,
2013-07-04 20:39:00,75.3,64.0,29.89,North,360,3.0,4.0,68,0.00,,---,0.00,VWS V14.01,2013-07-05 00:39:00,
2013-07-04 20:44:00,75.3,64.0,29.90,North,360,0.0,4.0,68,0.00,,---,0.00,VWS V14.01,2013-07-05 00:44:00,
2013-07-04 20:49:00,75.3,64.0,29.90,North,360,0.0,4.0,68,0.00,,---,0.00,VWS V14.01,2013-07-05 00:49:00,
2013-07-04 20:54:00,75.2,63.9,29.90,North,360,0.0,4.0,68,0.00,,---,0.00,VWS V14.01,2013-07-05 00:54:00,
2013-07-04 20:59:00,75.0,63.7,29.90,North,360,1.0,4.0,68,0.00,,---,0.00,VWS V14.01,2013-07-05 00:59:00,
2013-07-04 21:04:00,74.6,63.8,29.90,North,360,0.0,4.0,69,0.00,,---,0.00,VWS V14.01,2013-07-05 01:04:00,
2013-07-04 21:09:00,74.3,63.5,29.90,North,360,0.0,4.0,69,0.00,,---,0.00,VWS V14.01,2013-07-05 01:09:00,
2013-07-04 21:14:00,73.9,63.5,29.90,North,360,0.0,4.0,70,0.00,,---,0.00,VWS V14.01,2013-07-05 01:14:00,
2013-07-04 21:19:00,73.6,63.2,29.90,North,360,0.0,4.0,70,0.00,,---,0.00,VWS V14.01,2013-07-05 01:19:00,
2013-07-04 21:24:00,73.1,63.2,29.90,North,360,0.0,4.0,71,0.00,,---,0.00,VWS V14.01,2013-07-05 01:24:00,
2013-07-04 21:29:00,72.6,62.7,29.90,North,360,0.0,4.0,71,0.00,,---,0.00,VWS V14.01,2013-07-05 01:29:00,
2013-07-04 21:34:00,72.2,62.7,29.90,North,360,0.0,4.0,72,0.00,,---,0.00,VWS V14.01,2013-07-05 01:34:00,
2013-07-04 21:39:00,71.9,62.8,29.90,North,360,0.0,4.0,73,0.00,,---,0.00,VWS V14.01,2013-07-05 01:39:00,
2013-07-04 21:44:00,71.5,62.8,29.90,North,360,0.0,4.0,74,0.00,,---,0.00,VWS V14.01,2013-07-05 01:44:00,
2013-07-04 21:49:00,71.3,62.6,29.90,North,360,0.0,4.0,74,0.00,,---,0.00,VWS V14.01,2013-07-05 01:49:00,
2013-07-04 21:54:00,71.0,62.7,29.90,North,360,0.0,4.0,75,0.00,,---,0.00,VWS V14.01,2013-07-05 01:54:00,
2013-07-04 21:59:00,70.8,62.5,29.90,North,360,0.0,4.0,75,0.00,,---,0.00,VWS V14.01,2013-07-05 01:59:00,
2013-07-04 22:04:00,70.6,62.3,29.90,North,360,0.0,3.0,75,0.00,,---,0.00,VWS V14.01,2013-07-05 02:04:00,
2013-07-04 22:09:00,70.5,62.2,29.90,North,360,0.0,3.0,75,0.00,,---,0.00,VWS V14.01,2013-07-05 02:09:00,
2013-07-04 22:14:00,70.3,62.0,29.90,North,360,0.0,3.0,75,0.00,,---,0.00,VWS V14.01,2013-07-05 02:14:00,
2013-07-04 22:19:00,70.2,62.3,29.90,North,360,0.0,3.0,76,0.00,,---,0.00,VWS V14.01,2013-07-05 02:19:00,
2013-07-04 22:24:00,70.1,62.2,29.90,North,360,0.0,3.0,76,0.00,,---,0.00,VWS V14.01,2013-07-05 02:24:00,
2013-07-04 22:29:00,69.9,62.0,29.91,North,360,0.0,3.0,76,0.00,,---,0.00,VWS V14.01,2013-07-05 02:29:00,
2013-07-04 22:34:00,69.7,61.8,29.91,North,360,0.0,3.0,76,0.00,,---,0.00,VWS V14.01,2013-07-05 02:34:00,
2013-07-04 22:39:00,69.6,62.1,29.91,North,360,0.0,3.0,77,0.00,,---,0.00,VWS V14.01,2013-07-05 02:39:00,
2013-07-04 22:44:00,69.4,61.9,29.91,North,360,0.0,3.0,77,0.00,,---,0.00,VWS V14.01,2013-07-05 02:44:00,
2013-07-04 22:49:00,69.3,61.8,29.91,North,360,0.0,6.0,77,0.00,,---,0.00,VWS V14.01,2013-07-05 02:49:00,
2013-07-04 22:54:00,69.2,61.7,29.91,North,360,0.0,6.0,77,0.00,,---,0.00,VWS V14.01,2013-07-05 02:54:00,
2013-07-04 22:59:00,69.2,61.7,29.91,North,360,0.0,6.0,77,0.00,,---,0.00,VWS V14.01,2013-07-05 02:59:00,
2013-07-04 23:04:00,69.1,61.6,29.92,North,360,0.0,6.0,77,0.00,,---,0.00,VWS V14.01,2013-07-05 03:04:00,
2013-07-04 23:09:00,69.1,61.6,29.92,North,360,1.0,6.0,77,0.00,,---,0.00,VWS V14.01,2013-07-05 03:09:00,
2013-07-04 23:14:00,69.1,61.6,29.92,North,360,0.0,6.0,77,0.00,,---,0.00,VWS V14.01,2013-07-05 03:14:00,
2013-07-04 23:19:00,69.0,61.5,29.91,North,360,0.0,6.0,77,0.00,,---,0.00,VWS V14.01,2013-07-05 03:19:00,
2013-07-04 23:24:00,69.0,61.5,29.91,North,360,0.0,6.0,77,0.00,,---,0.00,VWS V14.01,2013-07-05 03:24:00,
2013-07-04 23:29:00,69.0,61.5,29.91,North,360,0.0,6.0,77,0.00,,---,0.00,VWS V14.01,2013-07-05 03:29:00,
2013-07-04 23:34:00,68.9,61.8,29.91,North,360,0.0,6.0,78,0.00,,---,0.00,VWS V14.01,2013-07-05 03:34:00,
2013-07-04 23:39:00,68.8,61.7,29.91,North,360,0.0,6.0,78,0.00,,---,0.00,VWS V14.01,2013-07-05 03:39:00,
2013-07-04 23:44:00,68.8,61.7,29.91,North,360,0.0,6.0,78,0.00,,---,0.00,VWS V14.01,2013-07-05 03:44:00,
2013-07-04 23:49:00,68.8,61.7,29.92,North,360,0.0,6.0,78,0.00,,---,0.00,VWS V14.01,2013-07-05 03:49:00,
2013-07-04 23:54:00,68.9,61.4,29.91,North,360,4.0,7.0,77,0.00,,---,0.00,VWS V14.01,2013-07-05 03:54:00,
2013-07-04 23:59:00,68.9,61.4,29.91,North,360,1.0,7.0,77,0.00,,---,0.00,VWS V14.01,2013-07-05 03:59:00,